Location: Filler
(36.7551°N, 30.4456°E)
Time: 07:58:41
(UTC+00:00)

USA 267 - Pass Details

Date: 19 June 2024
Orbit: 1100 x 1107 km, 123.0° (Epoch: 21 May)

Event Time Altitude Azimuth Distance (km) Brightness Sun altitude
Rises 01:35:42 0° 41° (NE) 3,920 8.2 -11.2°
Reaches altitude 10° 01:38:13 10° 37° (NE) 2,960 7.0 -10.8°
Maximum altitude 01:44:35 59° 321° (NW) 1,261 3.6 -9.8°
Drops below altitude 10° 01:50:57 10° 244° (WSW) 2,949 4.9 -8.8°
Enters shadow 01:51:00 10° 243° (WSW) 2,971 4.9 -8.8°
